Location: Anciles
(42.5833°N, 0.5167°E)
Time: 10:40:05
(UTC+00:00)

Shenzhou-11 Module - Pass Details

Date: 10 December 2019
Orbit: 302 x 315 km, 42.8° (Epoch: 23 January)

Event Time Altitude Azimuth Distance (km) Brightness Sun altitude
Rises 17:11:11 0° 275° (W) 2,069 7.0 -8.5°
Reaches altitude 10° 17:13:11 10° 276° (W) 1,234 5.7 -8.8°
Maximum altitude 17:15:56 87° 359° (N) 325 1.6 -9.3°
Enters shadow 17:18:20 13° 95° (E) 1,078 3.8 -9.7°
